timestamp,surface_pressure_avg,surface_temp_avg,battery_voltage,lat,long
2023-10-02 00:09:01+00:00,346.5196,12.79,11.93,47.84626,-54.09684
2023-10-02 00:19:00+00:00,353.528,12.78,11.93,47.84626,-54.09684
2023-10-02 00:29:00+00:00,357.5046,12.76,11.93,47.84626,-54.09684
2023-10-02 00:39:00+00:00,358.7079,12.73,11.93,47.84626,-54.09684
2023-10-02 00:49:00+00:00,363.2529,12.73,11.93,47.84626,-54.09684
2023-10-02 00:59:00+00:00,367.5997,12.72,11.93,47.84626,-54.09684
2023-10-02 01:09:00+00:00,369.0278,12.73,11.93,47.84626,-54.09684
2023-10-02 01:19:00+00:00,369.0495,12.74,11.93,47.84626,-54.09684
2023-10-02 01:29:00+00:00,369.56300000000016,12.75,11.93,47.84626,-54.09684
2023-10-02 01:39:00+00:00,369.9296,12.75,11.93,47.84626,-54.09684
2023-10-02 01:49:00+00:00,365.908,12.72,11.93,47.84626,-54.09684
2023-10-02 01:59:00+00:00,361.9912,12.7,11.93,47.84626,-54.09684
2023-10-02 02:09:00+00:00,359.4897,12.71,11.93,47.84626,-54.09684
2023-10-02 02:19:00+00:00,353.9212,12.73,11.93,47.84626,-54.09684
2023-10-02 02:29:00+00:00,347.6263,12.74,11.93,47.84626,-54.09684
2023-10-02 02:39:00+00:00,344.4113,12.75,11.93,47.84626,-54.09684
2023-10-02 02:49:00+00:00,338.3979,12.78,11.93,47.84626,-54.09684
2023-10-02 02:59:00+00:00,331.5863,12.79,11.93,47.84626,-54.09684
2023-10-02 03:09:00+00:00,326.0913,12.8,11.93,47.84626,-54.09684
2023-10-02 03:19:00+00:00,320.7746,12.8,11.93,47.84626,-54.09684
2023-10-02 03:29:00+00:00,310.6462,12.8,11.93,47.84626,-54.09684
2023-10-02 03:39:00+00:00,303.4131,12.8,11.93,47.84626,-54.09684
2023-10-02 03:49:00+00:00,295.9897,12.8,11.93,47.84626,-54.09684
2023-10-02 03:59:00+00:00,285.0648,12.8,11.93,47.84626,-54.09684
2023-10-02 04:09:00+00:00,276.4647,12.8,11.93,47.84626,-54.09684
2023-10-02 04:19:00+00:00,270.2997,12.8,11.93,47.84626,-54.09684
2023-10-02 04:29:00+00:00,261.5614,12.8,11.93,47.84626,-54.09684
2023-10-02 04:39:00+00:00,250.6997,12.8,11.93,47.84626,-54.09684
2023-10-02 04:49:00+00:00,242.7981,12.8,11.93,47.84626,-54.09684
2023-10-02 04:59:00+00:00,234.9348,12.8,11.93,47.84626,-54.09684
2023-10-02 05:09:00+00:00,222.9564,12.8,11.93,47.84626,-54.09684
2023-10-02 05:19:01+00:00,211.4781,12.8,11.93,47.84626,-54.09684
2023-10-02 05:29:01+00:00,204.7881,12.8,11.93,47.84626,-54.09684
2023-10-02 05:39:01+00:00,197.3598,12.8,11.93,47.84626,-54.09684
2023-10-02 05:49:01+00:00,187.9114,12.8,11.93,47.84626,-54.09684
2023-10-02 05:59:01+00:00,182.8282,12.8,11.93,47.84626,-54.09684
2023-10-02 06:09:01+00:00,180.0598,12.8,11.93,47.84626,-54.09684
2023-10-02 06:19:01+00:00,174.8081,12.7,11.86,47.84626,-54.09684
2023-10-02 06:29:01+00:00,170.8398,12.69,11.86,47.84626,-54.09684
2023-10-02 06:39:01+00:00,170.9248,12.69,11.86,47.84626,-54.09684
2023-10-02 06:49:01+00:00,170.7481,12.69,11.86,47.84626,-54.09684
2023-10-02 06:59:01+00:00,168.9332,12.69,11.86,47.84626,-54.09684
2023-10-02 07:09:01+00:00,169.2898,12.7,11.86,47.84626,-54.09684
2023-10-02 07:19:00+00:00,173.3065,12.7,11.86,47.84626,-54.09684
2023-10-02 07:29:00+00:00,178.0465,12.7,11.86,47.84626,-54.09684
2023-10-02 07:39:00+00:00,181.8665,12.7,11.86,47.84626,-54.09684
2023-10-02 07:49:00+00:00,187.7815,12.7,11.86,47.84626,-54.09684
2023-10-02 07:59:00+00:00,193.6281,12.7,11.86,47.84626,-54.09684
2023-10-02 08:09:00+00:00,199.3598,12.71,11.86,47.84626,-54.09684
2023-10-02 08:19:00+00:00,205.6315,12.74,11.86,47.84626,-54.09684
2023-10-02 08:29:00+00:00,210.4148,12.75,11.86,47.84626,-54.09684
2023-10-02 08:39:00+00:00,216.9498,12.75,11.86,47.84626,-54.09684
2023-10-02 08:49:00+00:00,223.2864,12.74,11.86,47.84626,-54.09684
2023-10-02 08:59:00+00:00,228.1298,12.75,11.86,47.84626,-54.09684
2023-10-02 09:09:00+00:00,231.6331,12.77,11.86,47.84626,-54.09684
2023-10-02 09:19:00+00:00,237.8881,12.77,11.86,47.84626,-54.09684
2023-10-02 09:29:00+00:00,242.4547,12.8,11.86,47.84626,-54.09684
2023-10-02 09:39:00+00:00,246.5331,12.8,11.86,47.84626,-54.09684
2023-10-02 09:49:00+00:00,249.2014,12.8,11.86,47.84626,-54.09684
2023-10-02 09:59:00+00:00,252.3764,12.8,11.86,47.84626,-54.09684
2023-10-02 10:09:00+00:00,256.4114,12.8,11.86,47.84626,-54.09684
2023-10-02 10:19:00+00:00,262.4931,12.8,11.86,47.84626,-54.09684
2023-10-02 10:29:00+00:00,268.0597,12.8,11.86,47.84626,-54.09684
2023-10-02 10:39:00+00:00,274.1214,12.8,11.86,47.84626,-54.09684
2023-10-02 10:49:00+00:00,280.5714,12.8,11.86,47.84626,-54.09684
2023-10-02 10:59:00+00:00,286.1281,12.8,11.86,47.84626,-54.09684
2023-10-02 11:09:00+00:00,293.4681,12.8,11.86,47.84626,-54.09684
2023-10-02 11:19:00+00:00,303.1897,12.8,11.86,47.84626,-54.09684
2023-10-02 11:29:00+00:00,312.0663,12.82,11.86,47.84626,-54.09684
2023-10-02 11:39:00+00:00,320.2914,12.83,11.86,47.84626,-54.09684
2023-10-02 11:49:00+00:00,327.6713,12.84,11.86,47.84626,-54.09684
2023-10-02 11:59:00+00:00,338.4596,12.85,11.86,47.84626,-54.09684
2023-10-02 12:09:00+00:00,347.1496,12.86,11.86,47.84626,-54.09684
2023-10-02 12:19:00+00:00,352.9262,12.87,11.86,47.84626,-54.09684
2023-10-02 12:29:00+00:00,359.0096,12.88,11.86,47.84626,-54.09684
2023-10-02 12:39:00+00:00,365.7463,12.88,11.86,47.84626,-54.09684
2023-10-02 12:49:00+00:00,370.8013,12.87,11.86,47.84626,-54.09684
2023-10-02 12:59:00+00:00,373.2613,12.89,11.86,47.84626,-54.09684
2023-10-02 13:09:00+00:00,377.2946,12.89,11.86,47.84626,-54.09684
2023-10-02 13:19:00+00:00,380.0996,12.89,12.09,47.84626,-54.09684
2023-10-02 13:29:00+00:00,377.3762,12.89,12.09,47.84626,-54.09684
2023-10-02 13:39:00+00:00,377.6595,12.89,12.09,47.84626,-54.09684
2023-10-02 13:49:00+00:00,381.5679,12.89,12.09,47.84626,-54.09684
2023-10-02 13:59:00+00:00,381.6445,12.89,12.09,47.84626,-54.09684
2023-10-02 14:09:00+00:00,379.9145,12.89,12.09,47.84626,-54.09684
2023-10-02 14:19:00+00:00,378.8547,12.89,12.33,47.84626,-54.09684
2023-10-02 14:29:00+00:00,379.1129,12.9,12.33,47.84626,-54.09684
2023-10-02 14:39:00+00:00,375.9896,12.9,12.33,47.84626,-54.09684
2023-10-02 14:49:00+00:00,372.9346,12.9,12.33,47.84626,-54.09684
2023-10-02 14:59:00+00:00,371.8862,12.9,12.33,47.84626,-54.09684
2023-10-02 15:09:00+00:00,368.2964,12.9,12.33,47.84626,-54.09684
2023-10-02 15:19:00+00:00,362.7446,12.9,12.33,47.84626,-54.09684
2023-10-02 15:29:00+00:00,356.9396,12.9,12.33,47.84626,-54.09684
2023-10-02 15:39:00+00:00,350.7679,12.9,12.33,47.84626,-54.09684
2023-10-02 15:49:00+00:00,345.06800000000015,12.9,12.33,47.84626,-54.09684
2023-10-02 15:59:00+00:00,335.2246,12.9,12.33,47.84626,-54.09684
2023-10-02 16:09:00+00:00,327.1764,12.9,12.33,47.84626,-54.09684
2023-10-02 16:19:01+00:00,316.713,12.92,12.25,47.84626,-54.09684
2023-10-02 16:29:01+00:00,306.8113,12.96,12.25,47.84626,-54.09684
2023-10-02 16:39:01+00:00,298.1413,12.98,12.25,47.84626,-54.09684
2023-10-02 16:49:01+00:00,288.748,12.99,12.25,47.84626,-54.09684
2023-10-02 16:59:01+00:00,276.9847,12.99,12.25,47.84626,-54.09684
2023-10-02 17:09:01+00:00,266.6964,12.99,12.25,47.84626,-54.09684
2023-10-02 17:19:00+00:00,255.3665,12.98,12.25,47.84626,-54.09684
2023-10-02 17:29:00+00:00,242.9098,12.99,12.25,47.84626,-54.09684
2023-10-02 17:39:00+00:00,232.6381,13.0,12.25,47.84626,-54.09684
2023-10-02 17:49:00+00:00,222.9815,13.0,12.25,47.84626,-54.09684
2023-10-02 17:59:00+00:00,211.6664,13.0,12.25,47.84626,-54.09684
2023-10-02 18:09:00+00:00,201.3848,13.0,12.25,47.84626,-54.09684
2023-10-02 18:19:01+00:00,193.5697,13.0,12.09,47.84626,-54.09684
2023-10-02 18:29:01+00:00,188.7831,13.0,12.09,47.84626,-54.09684
2023-10-02 18:39:01+00:00,184.0098,13.0,12.09,47.84626,-54.09684
2023-10-02 18:49:01+00:00,175.7198,13.0,12.09,47.84626,-54.09684
2023-10-02 18:59:01+00:00,171.4698,13.0,12.09,47.84626,-54.09684
2023-10-02 19:09:01+00:00,171.5531,13.0,12.09,47.84626,-54.09684
2023-10-02 19:19:00+00:00,168.2131,13.01,12.01,47.84626,-54.09684
2023-10-02 19:29:00+00:00,165.5215,13.02,12.01,47.84626,-54.09684
2023-10-02 19:39:00+00:00,168.2831,13.0,12.01,47.84626,-54.09684
2023-10-02 19:49:00+00:00,169.4248,13.0,12.01,47.84626,-54.09684
2023-10-02 19:59:00+00:00,169.2664,13.01,12.01,47.84626,-54.09684
2023-10-02 20:09:00+00:00,173.0948,13.0,12.01,47.84626,-54.09684
2023-10-02 20:19:00+00:00,179.8814,13.0,12.01,47.84626,-54.09684
2023-10-02 20:29:00+00:00,184.3531,13.02,12.01,47.84626,-54.09684
2023-10-02 20:39:00+00:00,191.3298,13.03,12.01,47.84626,-54.09684
2023-10-02 20:49:00+00:00,199.8531,13.06,12.01,47.84626,-54.09684
2023-10-02 20:59:00+00:00,204.7798,13.08,12.01,47.84626,-54.09684
2023-10-02 21:09:00+00:00,209.1465,13.06,12.01,47.84626,-54.09684
2023-10-02 21:19:00+00:00,214.3365,13.04,11.93,47.84626,-54.09684
2023-10-02 21:29:00+00:00,218.4498,13.03,11.93,47.84626,-54.09684
2023-10-02 21:39:00+00:00,220.3765,13.03,11.93,47.84626,-54.09684
2023-10-02 21:49:00+00:00,224.6048,13.05,11.93,47.84626,-54.09684
2023-10-02 21:59:00+00:00,227.8114,13.07,11.93,47.84626,-54.09684
2023-10-02 22:09:00+00:00,230.3648,13.07,11.93,47.84626,-54.09684
2023-10-02 22:19:01+00:00,233.7514,13.07,11.93,47.84626,-54.09684
2023-10-02 22:29:01+00:00,239.4698,13.08,11.93,47.84626,-54.09684
2023-10-02 22:39:01+00:00,243.6531,13.08,11.93,47.84626,-54.09684
2023-10-02 22:49:01+00:00,246.2047,13.07,11.93,47.84626,-54.09684
2023-10-02 22:59:01+00:00,251.9448,13.05,11.93,47.84626,-54.09684
2023-10-02 23:09:01+00:00,259.7397,13.02,11.93,47.84626,-54.09684
2023-10-02 23:19:01+00:00,265.89799999999997,13.04,11.93,47.84626,-54.09684
2023-10-02 23:29:01+00:00,271.1047,13.08,11.93,47.84626,-54.09684
2023-10-02 23:39:01+00:00,278.0814,13.09,11.93,47.84626,-54.09684
2023-10-02 23:49:01+00:00,286.6431,13.09,11.93,47.84626,-54.09684
2023-10-02 23:59:01+00:00,295.6714,13.09,11.93,47.84626,-54.09684
